Temp
20 20 20 19 22 24 22 23 24 22 22 22 21 22 22 19 21 22 18 18 18 18 18 18 18 18 18 18 18 18 19 18 18 18 17 18 17 18 18 18 18 18 18 18 18 18 18 18 18
20 20 20 19 24 24 23 24 23 24 22 21 21 21 20 19 16 17 18 18 18 18 18 18 18 17 18 18 18 19 18 18 18 18 18 18 17 18 18 18 18 18 19 19 18 18 18 18 17
20 20 20 22 24 25 24 24 24 22 22 22 21 20 19 17 16 16 19 18 18 18 18 18 18 17 18 18 18 18 18 18 18 18 18 18 18 19 19 19 18 18 19 18 18 18 18 18 18
20 19 20 24 25 24 24 24 23 22 22 21 21 20 17 16 16 18 18 18 18 18 18 18 18 18 18 18 19 19 19 18 18 18 19 18 18 18 19 19 19 19 18 18 18 18 18 18 18
20 20 24 25 25 24 24 23 23 23 22 21 21 19 17 16 17 18 18 18 19 19 19 18 18 18 18 19 19 19 18 18 19 19 18 18 17 17 18 20 20 19 19 18 18 18 18 18 19
20 20 25 25 24 24 24 23 23 22 21 20 20 19 16 17 18 18 18 18 19 19 19 18 18 18 18 18 19 18 18 19 19 18 18 18 17 19 19 20 20 19 19 19 19 19 19 19 19
22 23 24 24 24 24 24 23 23 22 21 21 20 19 16 16 17 18 19 19 19 19 19 18 18 18 18 18 18 19 19 19 18 18 18 18 18 19 19 19 19 19 19 19 19 19 19 20 20
20 22 24 24 24 24 24 23 22 23 21 20 20 19 17 16 17 18 18 18 18 19 18 18 18 18 18 18 18 18 19 19 19 18 19 19 19 19 19 19 19 19 19 19 19 20 20 20 20
20 24 24 24 25 24 23 23 22 21 21 21 19 19 18 16 17 18 18 17 18 18 19 18 18 19 19 18 18 19 19 19 19 19 19 19 19 19 19 19 19 19 20 20 20 20 21 21 21
22 25 25 26 26 25 24 24 22 22 22 20 18 18 17 17 17 16 16 16 17 18 18 18 19 19 19 19 19 19 20 19 19 19 19 19 19 20 19 19 19 20 20 21 21 21 21 21 21
22 25 24 26 25 25 24 23 23 23 23 21 19 17 16 16 16 16 16 16 16 17 18 18 19 19 19 19 19 19 20 20 19 19 20 19 19 19 20 20 20 20 20 21 21 21 21 21 21
25 24 24 25 25 24 24 23 23 23 23 21 20 19 17 17 17 17 17 16 16 16 18 18 19 19 19 19 19 19 20 20 20 20 20 20 20 20 20 20 20 20 21 21 21 21 21 22 22
26 25 26 25 24 24 24 23 23 21 20 20 19 18 18 17 17 17 18 18 17 16 18 19 19 19 19 19 19 19 20 20 20 20 20 20 20 20 20 20 20 20 21 21 21 21 21 22 22
23 25 25 25 24 24 24 23 23 20 20 20 19 19 18 18 18 18 19 18 18 17 18 19 19 19 19 19 19 19 19 20 20 20 20 20 20 20 20 20 20 21 21 21 21 21 22 22 22
24 26 26 25 24 24 24 23 24 20 20 20 20 19 18 18 19 19 19 19 19 18 18 19 19 19 19 19 19 19 19 19 20 20 20 20 20 20 20 20 21 21 21 21 21 21 21 22 22
25 25 25 25 25 23 25 24 22 21 21 21 20 19 19 19 19 20 20 20 19 19 19 19 19 20 20 20 19 19 19 19 20 20 20 20 20 20 20 20 20 21 21 21 21 21 21 21 22
25 25 25 25 26 25 26 24 22 21 21 21 20 20 20 19 19 19 20 20 20 20 20 20 20 20 20 19 19 19 19 20 20 20 20 20 20 20 20 20 20 20 20 20 21 21 21 21 21
26 26 26 26 26 26 25 25 23 22 22 22 21 21 20 20 20 20 20 20 20 20 20 20 21 20 20 20 19 19 19 20 20 20 20 20 20 20 20 20 20 20 20 20 20 21 21 21 21
27 27 27 27 26 26 26 25 24 22 22 22 22 21 21 21 21 20 21 21 20 20 21 21 21 21 21 20 20 20 20 20 20 20 20 20 19 19 19 19 20 20 20 20 20 21 21 21 21
27 27 27 27 26 27 25 25 24 23 23 23 23 22 22 22 21 21 21 21 21 21 21 21 21 21 21 20 20 20 20 19 19 19 20 20 20 19 20 19 19 20 20 20 20 21 21 21 21
27 28 27 28 26 26 26 26 24 24 23 23 23 23 22 23 22 21 22 22 22 22 22 22 22 21 21 20 20 20 20 19 19 19 19 20 20 20 20 20 20 19 20 20 20 20 20 20 20
29 27 27 26 27 27 26 28 24 24 24 23 22 22 22 22 22 22 23 23 23 23 22 22 22 21 21 21 20 20 20 19 19 19 19 19 19 19 20 20 20 20 19 20 20 20 20 20 19
27 26 26 26 27 27 26 27 25 23 24 24 24 21 21 22 22 22 23 23 23 23 23 23 22 21 21 21 20 20 19 19 19 19 19 19 19 19 19 19 20 20 20 20 20 20 20 20 20
24 26 25 25 27 27 23 26 25 23 22 22 23 23 21 21 21 21 22 22 23 23 22 22 22 22 21 21 20 20 20 20 19 20 19 19 19 19 19 19 19 19 20 20 20 20 20 19 19
26 28 27 27 27 27 22 24 23 21 21 21 21 23 20 22 20 20 20 21 22 22 22 22 21 21 21 20 20 20 20 19 19 19 19 19 19 19 19 19 19 19 19 20 20 20 20 20 19
25 28 27 25 26 26 22 24 22 19 19 19 20 21 20 19 19 19 20 21 20 20 20 21 20 20 18 19 19 19 19 19 19 19 19 19 19 19 19 19 20 20 20 20 20 20 20 20 20
24 26 23 24 20 24 23 21 21 20 18 19 19 20 19 17 18 18 17 20 20 19 19 19 18 18 18 19 19 19 18 18 18 18 18 18 18 19 19 20 20 20 20 20 20 20 20 20 20
25 22 25 24 23 23 22 21 22 20 18 19 19 17 17 16 17 17 17 16 16 16 17 17 18 18 19 19 19 19 19 19 19 19 19 19 20 20 19 19 20 21 20 20 20 20 20 20 20
24 24 21 23 22 24 23 23 19 18 17 17 16 16 15 15 15 15 15 15 16 16 16 16 17 17 18 18 18 18 18 18 18 19 18 18 18 19 20 20 20 20 19 19 20 20 20 20 20
22 22 24 26 22 21 23 21 18 17 18 17 15 14 13 12 13 13 14 14 15 15 15 16 16 16 16 17 17 17 17 17 17 17 18 17 18 18 18 19 20 20 19 17 18 19 19 19 20
Height
1510 1510 1510 1510 1516 1513 1526 1528 1523 1530 1533 1534 1538 1539 1542 1546 1545 1551 1556 1561 1562 1565 1566 1567 1569 1570 1571 1572 1573 1572 1573 1573 1573 1574 1574 1575 1575 1575 1575 1575 1575 1575 1575 1576 1576 1576 1577 1577 1578
1511 1511 1510 1509 1514 1521 1529 1522 1527 1528 1532 1535 1539 1541 1543 1548 1549 1551 1557 1561 1565 1566 1567 1569 1571 1572 1573 1574 1574 1575 1576 1576 1576 1577 1577 1577 1577 1577 1577 1576 1577 1577 1578 1578 1579 1579 1580 1580 1581
1511 1510 1512 1511 1518 1522 1527 1523 1526 1530 1533 1535 1539 1543 1546 1551 1552 1555 1558 1562 1566 1568 1570 1571 1573 1574 1575 1576 1577 1578 1579 1578 1578 1579 1579 1579 1579 1579 1578 1578 1579 1579 1580 1581 1582 1582 1583 1583 1583
1511 1513 1514 1515 1520 1523 1522 1525 1529 1532 1535 1536 1539 1545 1551 1553 1556 1557 1560 1564 1567 1570 1572 1573 1576 1577 1578 1579 1580 1581 1581 1581 1581 1581 1581 1581 1582 1581 1580 1580 1580 1581 1582 1583 1584 1585 1585 1585 1585
1511 1512 1515 1517 1521 1523 1524 1528 1531 1532 1536 1539 1540 1548 1552 1556 1557 1560 1562 1566 1569 1572 1574 1576 1577 1579 1580 1581 1582 1582 1582 1583 1583 1584 1584 1584 1584 1583 1582 1582 1583 1584 1585 1585 1586 1587 1587 1587 1587
1513 1515 1517 1524 1525 1525 1527 1529 1532 1535 1539 1542 1544 1546 1556 1557 1559 1562 1565 1568 1571 1574 1576 1577 1579 1581 1582 1583 1585 1585 1586 1586 1586 1586 1586 1586 1586 1585 1585 1585 1586 1587 1588 1589 1589 1590 1589 1589 1589
1514 1515 1523 1523 1526 1527 1528 1531 1533 1536 1539 1542 1545 1549 1557 1560 1561 1564 1567 1570 1573 1575 1577 1579 1581 1582 1583 1585 1586 1587 1588 1588 1589 1589 1589 1589 1589 1589 1589 1590 1590 1591 1592 1592 1592 1592 1592 1592 1592
1517 1518 1522 1524 1528 1530 1530 1532 1536 1537 1541 1544 1547 1551 1557 1559 1561 1564 1568 1570 1573 1575 1578 1580 1582 1583 1585 1586 1588 1589 1590 1591 1591 1592 1593 1593 1594 1594 1594 1594 1594 1595 1595 1595 1594 1595 1596 1596 1595
1518 1519 1527 1526 1526 1528 1532 1533 1538 1539 1542 1545 1547 1550 1555 1558 1561 1565 1567 1570 1572 1575 1578 1581 1583 1585 1586 1588 1590 1591 1592 1593 1593 1595 1596 1597 1597 1597 1598 1598 1598 1597 1597 1597 1597 1598 1599 1599 1599
1518 1520 1522 1519 1521 1526 1531 1534 1537 1541 1544 1548 1549 1552 1555 1559 1563 1566 1568 1571 1572 1575 1578 1581 1584 1586 1587 1589 1591 1593 1594 1595 1596 1597 1598 1600 1601 1601 1601 1601 1600 1600 1600 1600 1600 1601 1601 1601 1602
1518 1520 1520 1519 1522 1525 1531 1536 1539 1541 1544 1548 1549 1553 1557 1561 1564 1567 1570 1571 1572 1574 1578 1582 1585 1586 1589 1591 1593 1594 1595 1597 1598 1599 1601 1602 1603 1603 1603 1603 1602 1602 1603 1603 1603 1603 1603 1603 1603
1517 1520 1519 1520 1522 1526 1530 1535 1539 1542 1543 1546 1550 1553 1557 1561 1564 1567 1569 1571 1572 1574 1578 1582 1585 1587 1590 1592 1594 1595 1596 1598 1600 1601 1602 1604 1605 1605 1605 1605 1605 1605 1605 1605 1605 1604 1604 1604 1604
1517 1519 1519 1522 1525 1529 1532 1536 1539 1543 1543 1547 1553 1557 1560 1563 1565 1568 1570 1572 1574 1576 1579 1582 1586 1589 1592 1594 1596 1597 1599 1600 1602 1603 1604 1605 1606 1607 1607 1607 1607 1607 1607 1606 1606 1606 1605 1605 1605
1520 1520 1521 1525 1527 1531 1533 1538 1540 1547 1548 1551 1556 1559 1562 1565 1566 1568 1570 1573 1575 1577 1580 1584 1588 1591 1593 1595 1597 1599 1600 1602 1603 1605 1606 1607 1608 1608 1608 1608 1608 1608 1608 1608 1608 1607 1606 1605 1606
1522 1522 1522 1528 1530 1533 1534 1541 1542 1547 1551 1554 1558 1561 1564 1566 1568 1570 1572 1574 1577 1579 1581 1586 1589 1592 1595 1597 1599 1600 1602 1603 1604 1605 1607 1608 1609 1609 1609 1610 1610 1609 1609 1609 1609 1608 1607 1606 1606
1524 1526 1533 1529 1530 1535 1534 1543 1544 1548 1551 1555 1559 1562 1565 1567 1569 1572 1574 1575 1577 1580 1582 1586 1589 1593 1596 1598 1600 1601 1602 1604 1605 1606 1607 1608 1609 1609 1609 1609 1609 1610 1610 1609 1609 1609 1608 1607 1606
1528 1534 1533 1531 1529 1532 1535 1542 1545 1548 1552 1555 1559 1562 1565 1568 1570 1572 1574 1576 1578 1580 1583 1586 1590 1593 1595 1598 1600 1601 1602 1604 1605 1606 1607 1608 1608 1608 1609 1609 1609 1609 1609 1609 1609 1609 1609 1608 1606
1530 1531 1530 1528 1527 1530 1534 1537 1543 1548 1550 1553 1558 1561 1565 1566 1568 1570 1573 1577 1579 1582 1584 1587 1590 1593 1595 1598 1600 1601 1602 1603 1604 1605 1606 1607 1608 1607 1607 1607 1608 1608 1608 1608 1608 1608 1608 1607 1606
1519 1523 1526 1523 1524 1528 1531 1536 1540 1545 1550 1554 1557 1560 1563 1564 1568 1570 1573 1576 1579 1581 1584 1587 1589 1591 1594 1596 1598 1600 1601 1602 1603 1604 1605 1605 1606 1606 1606 1606 1606 1606 1606 1607 1607 1607 1606 1606 1605
1519 1524 1524 1523 1523 1525 1531 1534 1537 1541 1543 1548 1553 1557 1560 1564 1566 1567 1571 1574 1576 1579 1583 1585 1588 1591 1593 1595 1597 1598 1600 1600 1601 1602 1603 1604 1604 1605 1605 1605 1605 1604 1605 1605 1605 1605 1605 1604 1604
1520 1521 1522 1522 1525 1528 1529 1534 1538 1541 1545 1549 1552 1556 1559 1561 1563 1566 1569 1571 1575 1577 1580 1583 1586 1588 1591 1593 1595 1597 1598 1598 1599 1600 1601 1601 1602 1603 1603 1603 1603 1603 1603 1603 1603 1603 1602 1602 1602
1519 1517 1518 1522 1524 1533 1530 1538 1539 1538 1542 1545 1551 1554 1557 1559 1562 1565 1567 1569 1571 1574 1578 1581 1584 1586 1588 1591 1593 1594 1595 1596 1597 1598 1598 1599 1599 1599 1600 1600 1600 1600 1601 1600 1601 1601 1600 1600 1600
1521 1519 1521 1525 1527 1530 1538 1539 1538 1537 1540 1543 1548 1553 1556 1559 1561 1562 1564 1566 1569 1572 1575 1578 1581 1584 1586 1588 1590 1592 1593 1593 1594 1594 1594 1594 1594 1595 1596 1596 1596 1596 1597 1597 1597 1598 1597 1597 1597
1520 1522 1528 1531 1530 1540 1547 1543 1542 1543 1547 1545 1545 1549 1553 1556 1559 1560 1562 1564 1566 1568 1572 1575 1578 1580 1583 1585 1587 1588 1589 1590 1590 1590 1590 1590 1590 1589 1589 1590 1591 1591 1591 1592 1592 1593 1593 1593 1593
1519 1519 1536 1542 1542 1540 1549 1550 1545 1545 1544 1543 1541 1543 1549 1555 1558 1559 1561 1563 1564 1566 1570 1572 1574 1577 1579 1581 1583 1584 1585 1586 1586 1586 1585 1585 1585 1584 1584 1585 1584 1584 1584 1585 1586 1587 1588 1588 1588
1524 1518 1531 1555 1548 1542 1548 1548 1547 1548 1546 1543 1537 1540 1547 1553 1558 1559 1561 1562 1563 1566 1568 1570 1572 1573 1570 1577 1579 1581 1581 1582 1581 1580 1579 1579 1578 1578 1578 1577 1577 1577 1577 1578 1579 1579 1580 1581 1582
1526 1527 1532 1541 1558 1546 1548 1550 1547 1548 1548 1544 1543 1545 1550 1553 1557 1559 1562 1562 1563 1566 1568 1568 1571 1574 1574 1573 1574 1576 1574 1579 1578 1575 1574 1573 1572 1571 1569 1569 1568 1568 1569 1570 1571 1571 1572 1573 1574
1518 1529 1533 1538 1556 1555 1552 1552 1545 1549 1551 1549 1549 1551 1553 1554 1558 1560 1561 1565 1563 1567 1567 1570 1572 1572 1572 1574 1574 1575 1576 1575 1575 1572 1570 1569 1568 1566 1564 1562 1560 1560 1560 1562 1562 1563 1563 1563 1565
1526 1527 1539 1537 1543 1541 1549 1546 1551 1553 1552 1551 1551 1552 1554 1556 1558 1561 1560 1563 1562 1566 1568 1572 1571 1570 1571 1571 1573 1574 1575 1573 1571 1569 1567 1565 1563 1561 1559 1557 1554 1552 1552 1552 1552 1553 1554 1554 1555
1525 1529 1526 1526 1547 1546 1539 1549 1553 1554 1554 1554 1555 1557 1559 1557 1558 1559 1560 1563 1565 1569 1569 1573 1574 1571 1569 1569 1569 1569 1568 1566 1564 1563 1560 1559 1556 1555 1553 1552 1550 1547 1545 1545 1545 1544 1543 1543 1544
Wind_Speed
3 3 3 2 1 4 5 6 12 13 12 5 13 2 7 8 3 8 26 20 20 18 17 18 17 15 15 15 15 14 15 16 15 15 13 13 12 12 13 12 10 11 12 13 14 15 15 15 15
3 4 2 1 4 9 5 6 14 9 10 19 11 10 6 5 5 20 26 23 19 18 18 19 16 15 15 15 14 14 14 14 14 12 13 12 12 9 10 11 12 12 12 13 14 14 13 13 12
2 5 1 2 3 7 6 6 9 11 16 11 6 9 4 4 12 19 26 24 20 18 18 18 16 15 15 15 13 14 13 13 11 12 11 11 10 8 9 10 11 12 14 14 14 13 13 12 12
3 3 4 3 9 6 5 11 19 14 10 5 13 10 8 5 16 16 28 24 21 18 18 17 16 15 15 13 13 13 13 12 12 11 12 13 16 15 12 11 12 13 14 15 15 14 14 13 12
6 3 3 5 10 8 10 17 12 8 6 8 3 8 8 10 7 26 26 23 20 18 17 16 16 14 13 13 14 13 13 13 13 14 15 16 16 13 13 14 15 15 15 15 15 15 14 14 14
3 1 3 5 6 7 10 10 11 10 9 11 15 13 6 11 18 25 22 21 19 17 16 16 15 14 13 13 13 13 13 14 15 16 17 18 17 17 17 18 17 17 16 16 16 15 16 15 14
2 2 3 6 7 5 7 8 10 10 13 9 12 9 10 15 20 21 21 20 18 17 15 14 15 13 12 12 12 12 13 14 16 17 19 21 22 23 22 21 20 19 17 15 15 16 16 16 16
2 0 5 4 6 5 7 4 13 12 9 13 11 7 11 20 21 20 20 20 18 19 16 15 14 13 13 11 10 11 13 14 17 18 21 22 23 23 22 20 17 15 14 13 13 15 17 17 17
1 2 4 4 8 7 13 7 5 7 17 6 3 17 19 23 23 21 20 19 19 19 18 16 15 14 12 12 9 11 13 15 18 19 21 19 19 18 16 15 12 10 10 11 12 13 15 16 16
1 3 2 4 7 11 14 12 8 10 13 10 18 20 24 23 20 18 17 16 18 20 21 18 17 15 14 12 10 10 13 16 18 17 17 17 17 15 12 10 9 8 9 10 10 11 12 13 13
1 2 3 3 11 21 16 14 5 18 8 11 24 24 22 20 17 16 14 13 15 20 22 20 19 17 14 12 10 11 14 16 16 15 14 13 12 13 11 11 12 11 11 10 10 9 10 10 9
3 3 1 5 13 17 16 14 12 5 3 16 23 25 22 19 17 16 15 13 16 19 24 23 21 18 14 12 11 13 15 17 16 14 13 9 8 9 9 10 11 10 9 9 9 9 9 9 9
4 5 7 11 16 16 15 10 12 6 10 22 24 21 19 16 15 14 14 13 14 17 23 25 24 19 15 13 14 12 12 15 16 16 13 10 8 5 6 6 6 7 8 7 7 7 7 8 9
5 6 8 11 15 13 12 9 8 7 18 25 22 19 17 15 15 14 16 15 15 18 23 26 24 19 15 14 14 11 11 11 15 15 12 9 8 5 4 3 1 3 4 6 7 9 9 10 9
5 8 8 9 10 5 18 7 3 17 21 22 20 17 15 15 14 13 14 15 13 15 22 24 22 18 15 15 13 10 10 8 11 16 13 9 6 5 5 4 4 5 5 6 6 9 10 9 8
4 1 3 5 8 9 5 3 11 20 23 20 18 16 15 16 15 13 13 13 14 16 22 24 23 19 18 15 12 10 8 8 8 13 14 12 9 8 7 7 7 8 8 8 8 9 9 9 8
1 1 4 6 5 8 6 5 15 22 21 20 19 17 16 15 15 16 15 14 15 16 22 24 24 21 19 16 14 11 9 8 7 11 12 8 8 9 10 11 12 11 10 10 11 11 11 11 12
5 3 4 5 9 9 8 5 16 21 22 21 20 18 17 17 18 17 16 16 16 15 20 24 23 21 16 15 14 12 11 11 11 10 10 7 7 7 8 11 14 14 12 11 12 13 13 14 16
3 2 2 2 7 9 9 7 15 21 19 18 19 18 18 19 17 16 15 16 17 17 17 21 24 23 19 18 17 16 15 13 12 14 11 11 10 10 10 12 13 14 14 14 14 15 16 17 19
10 7 7 1 6 8 7 6 12 22 23 22 21 20 20 18 16 18 19 19 20 19 19 19 19 20 20 18 18 15 13 13 14 14 15 14 14 13 12 13 12 13 16 16 16 15 17 20 20
4 8 5 3 8 3 6 4 10 12 15 17 18 19 19 19 19 19 21 21 22 23 22 22 19 18 20 20 19 17 17 14 14 15 16 16 15 15 16 15 15 15 16 18 17 16 17 17 18
5 1 6 11 10 3 3 1 3 6 15 19 17 16 20 20 18 17 20 22 21 20 22 24 22 21 20 21 21 20 19 18 15 16 18 19 21 21 21 19 18 17 18 19 20 20 20 21 16
4 5 5 4 4 3 3 4 3 2 8 13 19 20 19 16 17 19 22 21 20 21 19 19 21 23 24 22 21 20 19 19 20 20 19 19 19 21 24 23 23 22 21 21 19 19 20 21 23
10 6 5 3 1 5 2 3 3 5 7 7 11 19 21 18 14 10 14 19 20 21 20 19 19 21 22 21 21 23 22 22 23 21 21 21 21 20 22 25 28 27 27 27 24 24 25 24 23
2 5 2 4 6 6 2 4 4 9 8 11 16 16 21 23 7 5 4 7 14 16 17 16 18 19 18 21 22 23 24 25 26 25 25 24 24 24 24 22 24 28 29 27 28 27 27 27 27
2 2 5 6 6 2 3 3 3 7 7 9 6 15 20 17 10 9 7 5 6 10 12 13 13 13 16 16 15 18 19 23 24 25 25 27 29 30 29 29 28 26 28 29 30 30 30 28 30
5 3 3 5 2 3 2 3 5 6 9 8 9 15 15 14 12 13 10 9 8 7 7 6 7 5 5 4 8 10 10 19 17 18 18 20 23 26 25 28 24 27 27 28 31 32 34 33 32
1 8 3 1 6 6 3 2 1 7 7 4 9 10 11 12 11 12 15 15 17 14 12 9 7 6 6 5 5 5 6 10 11 12 13 15 17 20 21 24 23 24 26 28 28 31 31 32 34
4 3 5 4 2 3 4 3 2 1 3 4 9 10 10 12 13 14 16 16 17 12 10 7 6 3 1 1 3 5 8 10 11 14 16 19 21 22 23 23 24 24 24 25 30 32 31 34 33
2 3 2 4 5 0 3 3 2 3 7 13 17 17 18 21 22 21 18 15 11 6 4 3 4 6 8 10 12 14 16 17 18 20 21 23 25 25 26 25 24 27 26 26 27 30 31 34 35
Wind_Direction
105 104 102 68 119 98 86 81 122 135 147 146 158 163 103 56 28 101 142 148 142 137 126 120 121 118 115 110 111 108 106 103 96 93 89 87 89 90 90 91 93 94 91 91 90 90 88 89 88
96 102 69 48 82 101 81 125 136 145 135 129 106 109 72 77 74 136 144 147 147 138 128 125 124 119 119 120 114 107 101 98 95 90 91 86 80 82 108 109 99 91 95 94 92 87 82 85 77
120 59 67 58 75 80 106 124 124 122 139 143 110 76 68 56 123 138 148 147 147 137 131 128 128 123 122 119 111 111 103 100 94 91 87 90 88 73 89 103 106 98 99 96 95 89 85 80 74
20 51 56 69 77 70 97 121 129 129 114 76 122 76 73 87 132 152 149 147 146 140 134 130 127 125 122 118 115 106 100 95 94 88 87 84 80 64 78 97 110 105 104 100 93 86 76 68 63
51 46 61 82 65 79 107 127 125 125 104 117 68 97 89 135 134 151 148 148 148 142 137 133 135 128 124 122 117 106 96 96 93 92 88 86 86 86 79 94 107 111 109 104 94 84 74 68 68
58 33 85 77 81 89 105 121 107 107 112 110 108 107 81 133 147 153 153 150 149 148 145 139 141 130 124 124 117 105 101 100 100 94 89 85 88 88 89 97 105 109 105 98 89 77 66 64 67
54 64 91 100 114 109 124 121 114 116 126 110 137 105 131 144 150 155 158 157 157 157 153 146 142 138 130 124 123 109 107 109 104 99 93 90 89 87 88 93 98 99 95 86 77 68 65 65 63
112 227 113 105 139 104 127 92 125 114 101 114 126 139 154 157 152 153 159 167 165 166 166 154 148 146 139 134 124 119 116 119 114 106 100 93 89 87 86 86 85 85 82 76 66 63 64 61 59
136 72 97 130 159 140 146 124 109 111 128 91 73 140 147 149 152 152 158 166 174 176 174 162 153 154 151 142 133 128 131 131 122 115 108 100 90 86 83 80 71 72 72 72 70 68 65 61 61
21 85 110 175 168 156 153 142 128 139 134 92 104 127 146 151 156 158 161 168 178 179 177 170 165 160 159 152 141 140 141 142 134 127 117 107 103 97 85 68 66 70 71 69 64 64 67 64 59
85 79 331 313 170 149 140 142 124 151 158 145 142 145 153 158 162 165 166 173 175 175 174 173 171 167 163 154 149 147 151 152 145 138 129 117 101 91 80 75 79 74 69 63 54 47 52 50 52
107 68 130 122 148 146 144 140 126 150 161 164 156 153 156 162 167 167 165 166 167 167 170 173 172 175 165 158 152 144 152 158 155 147 137 124 95 82 81 76 75 72 62 60 46 38 38 35 35
112 39 73 141 136 133 130 125 123 51 107 144 150 152 156 159 164 166 161 161 165 171 170 174 173 174 167 162 156 143 150 163 168 158 154 147 127 116 102 95 78 64 49 40 24 8 1 359 2
26 42 74 124 129 135 120 120 125 118 133 141 151 158 162 164 166 166 169 171 164 170 176 177 177 176 171 164 157 151 156 166 180 175 174 165 160 155 135 144 77 32 24 14 359 349 345 345 348
58 102 85 117 133 117 122 130 111 151 152 152 159 165 172 173 171 175 173 174 166 168 174 176 179 177 175 169 164 164 174 170 185 190 192 194 192 185 198 223 263 282 329 341 332 346 351 356 348
56 46 121 140 158 149 213 121 145 160 162 168 167 174 184 188 187 182 182 173 169 171 169 171 177 176 173 173 178 179 184 189 189 199 205 219 234 234 236 249 272 280 299 317 317 326 343 351 342
103 165 200 165 172 157 209 134 165 168 173 177 178 184 191 195 200 200 197 187 176 171 172 175 176 178 179 182 183 185 194 196 200 206 207 232 236 243 251 261 278 283 285 301 306 311 326 333 334
184 200 190 213 181 177 183 120 165 177 177 183 186 191 196 203 208 203 202 198 187 179 184 185 183 183 189 198 202 209 217 222 221 223 226 228 252 257 268 271 275 273 272 286 297 298 309 320 324
175 213 239 232 174 179 195 165 177 179 189 188 194 196 202 209 208 212 211 212 209 198 191 196 204 210 211 210 217 229 239 240 246 237 239 250 262 271 275 288 278 265 262 274 286 292 297 305 313
236 255 267 212 165 210 176 191 178 187 196 193 194 201 208 216 214 218 221 218 219 217 211 207 207 212 216 221 229 241 257 256 247 248 254 262 266 269 280 292 300 279 266 274 276 284 293 299 307
207 230 205 159 143 111 157 196 176 202 203 210 212 208 211 215 220 223 228 232 230 228 227 223 221 221 225 231 239 248 256 260 260 263 262 264 270 274 277 281 287 295 280 278 277 285 289 300 305
120 33 152 147 166 180 319 133 112 197 206 207 211 216 217 223 229 231 236 234 239 238 236 234 232 233 235 239 244 252 258 267 275 284 286 282 273 271 273 281 281 281 284 284 278 281 288 292 299
106 76 79 136 117 175 92 245 56 42 215 216 212 217 229 227 231 232 238 244 243 236 234 234 236 241 242 246 247 259 266 271 279 282 288 294 289 274 272 274 277 277 277 277 276 280 286 293 289
140 98 76 79 133 236 44 267 117 21 329 295 258 217 216 226 235 240 243 242 238 235 232 234 238 242 244 250 252 254 265 272 276 283 289 292 290 285 279 276 273 273 273 269 269 276 279 280 289
170 170 211 225 218 254 5 203 57 342 339 307 288 222 195 210 206 232 278 265 243 235 233 237 244 248 254 258 257 261 268 276 277 279 281 284 287 286 284 280 277 273 274 265 264 269 273 275 277
125 243 231 246 238 203 128 216 57 4 -0 346 339 176 168 161 145 109 123 162 213 222 220 239 262 248 264 266 265 266 273 277 275 275 276 278 280 285 290 291 277 273 267 265 265 268 270 268 270
134 176 37 114 59 225 143 129 222 46 26 49 94 137 135 127 114 96 96 129 142 156 170 174 194 197 241 294 288 274 314 281 285 292 298 300 301 302 294 287 289 268 266 267 264 267 268 269 268
15 131 166 113 181 227 165 208 270 354 4 71 103 107 100 97 102 110 111 110 110 99 93 83 82 64 52 30 15 344 320 321 321 329 328 323 318 316 309 297 286 283 264 262 266 267 268 270 269
144 149 66 106 300 230 193 172 358 57 69 100 79 77 84 100 114 123 114 116 108 106 99 88 87 79 61 328 319 306 297 300 309 312 314 316 318 320 320 317 310 292 282 271 263 262 265 269 270
67 99 185 241 186 113 304 134 46 92 115 115 100 89 93 93 103 101 100 100 106 108 99 337 343 326 321 312 303 298 297 296 297 300 302 304 305 307 308 308 306 303 296 287 284 278 265 264 267